Deer Park, WA
on Tuesday, February 5, 2013

Tuesday
Previous Day Next Day
Daily Summary
 ActualAverageRecord
Temperature
Mean Temperature °F 29°F  
Max Temperature 39°F 37°F 45°F (2012)
Min Temperature 24°F 22°F 0°F (2014)
Degree Days
Heating Degree Days 33 36  
Month to date heating degree days 169 180  
Since 1 July heating degree days 4277 4576  
Cooling Degree Days 0 0  
Month to date cooling degree days 0 0  
Year to date cooling degree days 0 0  
Moisture
Dew Point 30°F   
Average Humidity 93    
Maximum Humidity 100    
Minimum Humidity 85    
Precipitation
Precipitation T in 0.07 in 0.41 in (2008)
Month to date precipitation T 0.35  
Year to date precipitation 1.50 2.98  
Wind
Wind Speed 4 mph   
Max Wind Speed 14 mph   
Max Gust Speed 17 mph   
Visibility 6 miles   
Events Fog   

Key: T is trace of precipitation, MM is missing value
Source: NWS Daily Summary
Time(PST)TemperatureDew PointHumidity Pressure Visibility Wind DirectionWind SpeedGust SpeedPrecipitationEvents Conditions
12:53 AM 28.9°F 28.0°F 96% 30.01 in 5.0 miles North 4.6 mph - N/A   Overcast
1:53 AM 30.0°F 30.0°F 100% 30.00 in 7.0 miles North 3.5 mph - N/A   Overcast
2:53 AM 30.9°F 30.0°F 96% 29.98 in 5.0 miles Calm Calm - N/A   Overcast
3:53 AM 30.9°F 30.0°F 96% 29.96 in 6.0 miles Calm Calm - N/A   Overcast
4:53 AM 33.1°F 32.0°F 96% 29.92 in 10.0 miles Calm Calm - N/A   Mostly Cloudy
5:47 AM 26.6°F 26.6°F 100% 29.87 in 1.8 miles Calm Calm - N/A   Clear
5:48 AM 26.6°F 26.6°F 100% 29.87 in 1.2 miles Calm Calm - N/A   Partly Cloudy
5:50 AM 26.6°F 26.6°F 100% 29.87 in 0.8 miles West 3.5 mph - N/A   Partly Cloudy
5:53 AM 27.0°F 27.0°F 100% 29.93 in 0.5 miles Calm Calm - N/A Fog Light Freezing Fog
6:05 AM 26.6°F 26.6°F 100% 29.86 in 0.2 miles Calm Calm - N/A Fog Light Freezing Fog
6:25 AM 26.6°F 24.8°F 93% 29.86 in 1.2 miles North 3.5 mph - N/A   Partly Cloudy
6:30 AM 26.6°F 26.6°F 100% 29.86 in 3.0 miles North 4.6 mph - N/A   Partly Cloudy
6:53 AM 28.0°F 28.0°F 100% 29.92 in 9.0 miles NNE 3.5 mph - N/A   Clear
7:36 AM 26.6°F 26.6°F 100% 29.85 in 1.8 miles Calm Calm - N/A   Clear
7:48 AM 28.4°F 26.6°F 93% 29.84 in 0.5 miles Calm Calm - N/A Fog Light Freezing Fog
7:53 AM 27.0°F 27.0°F 100% 29.91 in 0.2 miles Calm Calm - N/A Fog Light Freezing Fog
8:17 AM 24.8°F 24.8°F 100% 29.85 in 2.0 miles WNW 3.5 mph - N/A   Overcast
8:25 AM 24.8°F 24.8°F 100% 29.85 in 4.0 miles Calm Calm - N/A   Mostly Cloudy
8:53 AM 26.1°F 26.1°F 100% 29.91 in 2.5 miles Calm Calm - N/A   Partly Cloudy
9:17 AM 26.6°F 26.6°F 100% 29.84 in 4.0 miles Calm Calm - N/A   Partly Cloudy
9:53 AM 28.0°F 28.0°F 100% 29.91 in 4.0 miles Calm Calm - N/A   Overcast
10:53 AM 32.0°F 32.0°F 100% 29.90 in 8.0 miles Calm Calm - N/A   Overcast
11:53 AM 36.0°F 32.0°F 86% 29.88 in 10.0 miles SSE 5.8 mph - N/A   Overcast
12:53 PM 37.0°F 33.1°F 86% 29.86 in 10.0 miles South 5.8 mph - N/A   Mostly Cloudy
1:34 PM 37.4°F 33.8°F 87% 29.81 in 10.0 miles SSW 10.4 mph - N/A   Overcast
1:53 PM 37.9°F 33.1°F 83% 29.87 in 10.0 miles SW 13.8 mph - N/A   Overcast
2:36 PM 37.4°F 33.8°F 87% 29.81 in 10.0 miles South 10.4 mph - 0.00 in   Overcast
2:53 PM 37.0°F 34.0°F 89% 29.87 in 10.0 miles SSW 5.8 mph - 0.00 in   Overcast
3:24 PM 37.4°F 33.8°F 87% 29.82 in 10.0 miles South 5.8 mph - N/A   Overcast
3:53 PM 37.9°F 34.0°F 86% 29.87 in 10.0 miles Calm Calm - N/A   Overcast
4:53 PM 37.9°F 33.1°F 83% 29.88 in 10.0 miles Variable 3.5 mph - N/A   Overcast
5:53 PM 37.0°F 33.1°F 86% 29.89 in 10.0 miles SSE 5.8 mph - N/A   Overcast
6:53 PM 37.0°F 34.0°F 89% 29.90 in 10.0 miles SSE 6.9 mph - N/A   Overcast
7:18 PM 35.6°F 33.8°F 93% 29.85 in 10.0 miles SSE 3.5 mph - N/A   Overcast
7:53 PM 37.0°F 34.0°F 89% 29.91 in 10.0 miles SSE 5.8 mph - N/A   Overcast
8:53 PM 37.0°F 35.1°F 93% 29.92 in 10.0 miles SSE 8.1 mph - N/A   Overcast
9:29 PM 35.6°F 33.8°F 93% 29.86 in 10.0 miles SSE 5.8 mph - N/A   Partly Cloudy
9:53 PM 36.0°F 34.0°F 93% 29.93 in 10.0 miles South 8.1 mph - N/A   Clear
11:53 PM 34.0°F 32.0°F 92% 29.94 in 10.0 miles South 9.2 mph - N/A   Partly Cloudy
Moon Phase
Feb. 05 Feb. 10 Feb. 17 Feb. 25 Mar. 04
Sunrise:07:11 AM (PST) Moon Rise:03:06 AM (PST)2/5
Sunset:04:56 PM (PST) Moon Set:12:09 PM (PST)2/5

Copyright © 2014 The Weather Underground, Inc.